Meridian NAS, MS

10:27 PM CDT on September 22, 2017 (GMT -0500)
Meridian Naval Air Station

Weather History for KNMM - February, 2013

Change the Weather History Date:

Thursday, February 14, 2013

  Actual Average Record
Temperature  
Mean Temperature 44 °F -  
Max Temperature 59 °F 59 °F 75 °F (2003)
Min Temperature 30 °F 40 °F 21 °F (2008)
Degree Days  
Heating Degree Days 20    
Moisture  
Dew Point 34 °F    
Average Humidity 81    
Maximum Humidity 100    
Minimum Humidity 39    
Precipitation  
Precipitation 0.00 in - - ()
Sea Level Pressure  
Sea Level Pressure 30.12 in    
Wind  
Wind Speed 2 mph (NW)    
Max Wind Speed 7 mph    
Max Gust Speed -    
Visibility 6 miles    
Events Fog    
Averages and records for this station are not official NWS values.
T = Trace of Precipitation, MM = Missing Value Source: NWS Daily Summary

Daily Weather History Graph

Daily Weather History Graph

Search for Another Location

Airport or City:

Trip Planner

Search our weather history database for the weather conditions in past years. The results will help you decide how hot, cold, wet, or windy it might be!

Date:

Astronomy

Feb. 14, 2013 Rise Set
Actual Time 6:37 AM CST 5:39 PM CST
Civil Twilight 6:12 AM CST 6:04 PM CST
Nautical Twilight 5:43 AM CST 6:33 PM CST
Astronomical Twilight 5:15 AM CST 7:02 PM CST
Moon 8:58 AM CST (2/14) 10:21 PM CST (2/14)
Length of Visible Light 11h 51m
Length of Day
11h 01m
Waxing Crescent, 22% of the Moon is Illuminated
Feb 14
Waxing Crescent
Feb 17
First Quarter
Feb 25
Full
Mar 4
Last Quarter
Mar 11
New

Hourly Weather History & Observations

Time (CST) Temp. Windchill Dew Point Humidity Pressure Visibility Wind Dir Wind Speed Gust Speed Precip Events Conditions
12:06 AM 33.8 °F 29.6 °F 33.8 °F 100% 30.08 in 1.0 mi NNW 4.6 mph - N/A   Clear
12:08 AM 33.8 °F 29.6 °F 32.0 °F 93% 30.08 in 0.5 mi NNW 4.6 mph - N/A Fog Fog
12:22 AM 35.6 °F 31.7 °F 33.8 °F 93% 30.07 in 1.0 mi North 4.6 mph - N/A   Mist
12:25 AM 35.6 °F 32.8 °F 33.8 °F 93% 30.07 in 2.0 mi NNW 3.5 mph - N/A   Partly Cloudy
12:32 AM 33.8 °F - 33.8 °F 100% 30.07 in 4.0 mi Calm Calm - N/A   Partly Cloudy
12:56 AM 35.1 °F - 33.1 °F 92% 30.12 in 4.0 mi Calm Calm - N/A   Clear
1:56 AM 35.1 °F - 33.1 °F 92% 30.11 in 4.0 mi Calm Calm - N/A   Clear
2:46 AM 33.8 °F - 32.0 °F 93% 30.07 in 2.5 mi Calm Calm - N/A   Clear
2:56 AM 32.0 °F - 30.9 °F 96% 30.10 in 1.2 mi Calm Calm - N/A   Clear
3:23 AM 30.2 °F - 28.4 °F 93% 30.07 in 2.5 mi Calm Calm - N/A   Clear
3:56 AM 30.9 °F - 30.0 °F 96% 30.11 in 4.0 mi Calm Calm - N/A   Clear
4:12 AM 30.2 °F - 28.4 °F 93% 30.08 in 2.5 mi Calm Calm - N/A   Clear
4:30 AM 30.2 °F - 30.2 °F 100% 30.09 in 3.0 mi Calm Calm - N/A   Clear
4:56 AM 32.0 °F - 30.0 °F 92% 30.14 in 6.0 mi Calm Calm - N/A   Clear
5:56 AM 30.0 °F - 28.9 °F 96% 30.15 in 3.0 mi Calm Calm - N/A   Clear
6:00 AM 30.2 °F - 28.4 °F 93% 30.11 in 3.0 mi Calm Calm - N/A   Partly Cloudy
6:56 AM 30.9 °F - 28.0 °F 89% 30.14 in 5.0 mi Calm Calm - N/A   Partly Cloudy
7:56 AM 35.1 °F - 33.1 °F 92% 30.17 in 3.0 mi Calm Calm - N/A   Partly Cloudy
8:56 AM 42.1 °F - 37.0 °F 82% 30.20 in 10.0 mi Calm Calm - N/A   Partly Cloudy
9:56 AM 48.0 °F - 36.0 °F 63% 30.19 in 10.0 mi West 4.6 mph - N/A   Partly Cloudy
10:56 AM 52.0 °F - 37.0 °F 57% 30.18 in 10.0 mi Calm Calm - N/A   Partly Cloudy
11:56 AM 54.0 °F - 36.0 °F 51% 30.16 in 10.0 mi SSW 6.9 mph - N/A   Partly Cloudy
12:56 PM 55.9 °F - 35.1 °F 45% 30.14 in 10.0 mi SW 6.9 mph - N/A   Partly Cloudy
1:56 PM 57.9 °F - 33.1 °F 39% 30.12 in 10.0 mi Calm Calm - N/A   Partly Cloudy
2:56 PM 59.0 °F - 34.0 °F 39% 30.11 in 10.0 mi NE 4.6 mph - N/A   Clear
3:56 PM 57.9 °F - 33.1 °F 39% 30.10 in 10.0 mi Calm Calm - N/A   Clear
4:56 PM 57.0 °F - 35.1 °F 44% 30.11 in 10.0 mi West 3.5 mph - N/A   Clear
5:56 PM 48.9 °F - 39.0 °F 69% 30.12 in 10.0 mi Calm Calm - N/A   Clear
6:56 PM 48.0 °F - 39.0 °F 71% 30.13 in 10.0 mi Calm Calm - N/A   Clear
7:56 PM 42.1 °F - 39.0 °F 89% 30.13 in 10.0 mi Calm Calm - N/A   Clear
8:56 PM 39.9 °F - 37.9 °F 93% 30.14 in 10.0 mi Calm Calm - N/A   Clear
9:56 PM 39.0 °F - 37.0 °F 93% 30.14 in 10.0 mi Calm Calm - N/A   Clear
10:56 PM 37.0 °F - 35.1 °F 93% 30.14 in 9.0 mi Calm Calm - N/A   Clear
11:56 PM 37.0 °F - 35.1 °F 93% 30.14 in 8.0 mi Calm Calm - N/A   Clear